Find Kosmos-1527

NORAD ID: 14616 Int'l Des: 1984-001 Owner: GUKOS Country: SU operational
LEOCIRCULAR

現在のビュー

3D地球を読み込み中...

About Kosmos-1527

Kosmos-1527 (NORAD 14616) is a satellite launched Jan 5, 1984 by GUKOS of SU. It operates in LEO, CIRCULAR orbit with a mass of 60.00 kg.

Kosmos-1527について

説明を読み込み中...

次回通過

Passes for default location (London). Set your location on the main map for personalized predictions.

高度履歴

Loading altitude history...

軌道要素

1 14616U 84001F 26159.78030561 -.00000003 00000-0 86743-4 0 9990
2 14616 74.0091 279.2827 0001595 175.9439 296.1219 12.51104597526329
Epoch: Jun 8, 2026 • Age: 10 hours

現在のステータス

高度 1472.6 km
速度 7.13 km/s
衛星直下点 -37.25°S, 140.3°E
打ち上げ日 Jan 5, 1984
運用期間 42.4 years
タイプ other

技術仕様

分類 Payload
質量 60.00 kg
乾燥質量 60.00 kg
総質量 60.00 kg
長さ 0.80 m
直径 0.80 m
スパン 0.80 m
形状 Poly
製造者 NPOPM
バスタイプ Strela-1 11F625
フェーズステータス In Orbit
所有者/国 GUKOS/SU

Most Searched